CAPE
9 40 36 42 41 24 8 9 0 0 0 0 0 0 0 0 0 0 0 0 0 0 0 0 0 0 0 0 0 0 0 0 0 0 0 0 0 0 0 0 0 0 0 0 0
13 5 37 41 56 23 14 7 13 0 0 0 0 0 0 0 0 0 0 0 0 0 0 0 0 0 0 0 0 0 0 0 0 0 0 0 0 0 0 0 0 0 0 0 0
36 16 11 44 46 40 12 5 18 0 0 0 0 0 0 0 0 0 0 0 0 0 0 0 0 0 0 0 0 0 0 0 0 0 0 0 0 0 0 0 0 0 0 0 0
40 22 7 15 36 25 34 2 1 18 0 0 0 0 0 0 0 0 0 0 0 0 0 0 0 0 0 0 0 0 0 0 0 0 0 0 0 0 0 0 0 0 0 0 0
18 23 7 0 11 33 21 22 3 20 5 0 0 0 0 0 0 0 0 0 0 0 0 0 0 0 0 0 0 0 0 0 0 0 0 0 0 0 0 0 0 0 0 0 0
4 4 12 0 0 7 36 4 20 8 23 9 0 0 0 0 0 0 0 0 0 0 0 0 0 0 0 0 0 0 0 0 0 0 0 0 0 0 0 0 0 0 0 0 0
28 0 10 11 0 9 21 16 1 26 26 6 0 0 0 0 0 0 0 0 0 0 0 0 0 0 0 0 0 0 0 0 0 0 0 0 0 0 0 0 0 0 0 0 0
13 9 0 12 7 6 13 18 13 22 15 33 0 0 0 0 0 0 0 0 0 0 0 0 0 0 0 0 0 0 0 0 0 0 0 0 0 0 0 0 0 0 0 0 0
10 5 0 3 14 3 11 13 10 29 14 39 1 0 0 0 0 0 0 0 0 0 0 0 0 0 0 0 0 0 0 0 0 0 0 0 0 0 0 0 0 0 0 0 0
3 5 0 1 4 0 8 44 22 35 49 1 0 0 0 0 0 0 0 0 0 10 2 11 0 0 0 0 0 0 0 0 0 0 0 0 0 0 0 0 0 0 0 0 0
11 2 0 0 0 1 11 31 9 7 57 5 0 0 0 0 0 0 0 0 21 32 0 4 0 0 0 0 0 0 0 0 0 0 0 0 0 0 0 0 0 0 0 0 0
68 1 0 0 0 10 3 43 8 10 19 17 2 0 0 0 0 0 0 0 4 0 13 0 0 0 0 0 0 0 0 0 0 0 0 0 0 0 0 0 0 0 0 0 0
104 17 0 0 1 28 0 16 0 8 6 5 17 7 0 0 0 0 0 0 0 0 0 0 0 0 0 0 0 0 0 0 0 0 0 0 0 0 0 0 0 0 0 0 0
128 37 0 0 3 14 0 0 0 5 1 0 5 12 3 0 0 0 9 0 1 0 0 0 0 0 0 0 0 0 0 0 0 0 0 0 0 0 0 0 0 0 0 0 0
108 55 0 0 0 3 0 0 0 3 0 0 3 2 0 0 0 0 0 1 0 0 0 0 0 0 0 0 0 0 0 0 0 0 0 0 0 0 0 0 0 0 0 0 0
110 57 0 0 0 0 0 0 0 10 0 0 7 9 8 7 1 0 9 17 0 0 0 0 0 0 0 0 0 0 0 0 1 4 0 0 0 0 0 0 0 0 0 0 0
106 58 2 0 0 1 9 13 0 6 0 0 5 13 9 14 18 0 2 7 0 1 1 1 0 0 0 0 1 11 8 5 2 5 0 0 0 0 0 0 0 0 0 0 0
80 38 0 0 0 6 26 7 0 0 0 3 1 3 6 24 15 20 5 2 1 0 0 0 0 0 0 0 0 10 16 0 0 0 0 0 0 0 0 0 0 0 0 0 0
100 0 0 0 0 14 4 3 0 0 0 0 7 7 7 11 9 22 11 1 5 0 0 0 0 0 0 0 0 0 24 0 0 0 0 0 0 0 0 0 0 0 0 0 0
0 0 0 0 3 9 0 0 0 0 0 3 0 0 1 1 2 4 4 0 10 3 0 0 0 0 0 0 0 0 0 14 21 2 0 0 0 0 0 0 0 0 0 0 0
0 0 3 0 1 1 0 0 0 0 0 2 6 2 0 0 1 2 0 0 1 1 0 2 0 0 0 0 0 2 9 14 15 6 0 0 0 0 0 0 0 0 0 0 0
1 1 6 0 0 0 0 0 0 0 0 0 0 0 0 0 2 0 0 0 0 0 0 0 1 1 0 0 0 0 4 12 1 0 0 0 0 0 0 0 0 0 0 0 0
0 1 4 0 0 0 0 0 0 0 0 0 0 0 0 0 0 8 0 0 1 0 0 0 5 2 0 2 0 1 0 0 2 0 0 0 0 0 0 0 0 0 0 0 0
0 0 0 0 0 0 0 0 0 0 0 0 0 0 0 0 0 0 0 0 1 1 7 8 1 1 0 0 0 1 7 10 33 37 0 0 0 0 0 0 0 0 0 0 0
0 0 0 1 0 0 0 0 0 0 0 0 0 0 0 0 0 0 0 0 0 0 18 33 2 0 0 0 0 0 20 15 12 0 9 0 0 0 0 0 0 0 0 0 0
0 0 0 0 0 0 0 0 0 0 0 0 0 0 0 0 0 0 0 0 0 0 23 15 12 2 0 0 0 0 0 0 0 0 5 0 0 0 0 0 0 0 0 0 0
0 0 0 0 0 0 0 0 0 0 0 0 0 0 0 0 0 0 0 0 0 0 2 41 27 1 0 0 0 5 0 0 0 0 0 0 0 0 0 0 0 0 0 0 0
CIN
-9 -0 -1 -8 -21 -11 -11 -4 -0 -0 -0 -0 -0 -0 -0 -0 -0 -0 -0 -0 -0 -0 -0 -0 -0 -0 -0 -0 -0 -0 -0 -0 -0 -0 -0 -0 -0 -0 -0 -0 -0 -0 -0 -0 -0
-4 -7 -0 -4 -5 -28 -14 -9 -3 -0 -0 -2 -0 -0 -0 -0 -0 -0 -0 -0 -0 -0 -0 -0 -0 -0 -0 -0 -0 -0 -0 -0 -0 -0 -0 -0 -0 -0 -0 -0 -0 -0 -0 -0 -0
-1 -2 -9 -5 -3 -8 -32 -26 -6 -0 -0 -0 -0 -0 -0 -0 -0 -0 -0 -0 -0 -0 -0 -0 -0 -0 -0 -0 -0 -0 -0 -0 -0 -0 -0 -0 -0 -0 -0 -0 -0 -0 -0 -0 -0
-1 -2 -17 -12 -6 -18 -4 -39 -6 -8 -0 -0 -0 -0 -0 -0 -0 -0 -0 -0 -0 -0 -0 -0 -0 -0 -0 -0 -0 -0 -0 -0 -0 -0 -0 -0 -0 -0 -0 -0 -0 -0 -0 -0 -0
-3 -5 -14 -23 -36 -5 -27 -14 -41 -10 -23 -0 -0 -0 -0 -0 -0 -0 -0 -0 -0 -0 -0 -0 -0 -0 -0 -0 -0 -0 -0 -0 -0 -0 -0 -0 -0 -0 -0 -0 -0 -0 -0 -0 -0
-11 -11 -8 -1 -13 -19 -3 -16 -28 -25 -11 -10 -0 -0 -0 -0 -0 -0 -0 -0 -0 -0 -0 -0 -0 -0 -0 -0 -0 -0 -0 -0 -0 -0 -0 -0 -0 -0 -0 -0 -0 -0 -0 -0 -0
-2 -0 -10 -13 -33 -28 -12 -14 -3 -18 -9 -12 -0 -0 -0 -0 -0 -0 -0 -0 -0 -0 -0 -0 -0 -0 -0 -0 -0 -0 -0 -0 -0 -0 -0 -0 -0 -0 -0 -0 -0 -0 -0 -0 -0
-1 -3 -0 -6 -24 -29 -21 -20 -38 -22 -28 -5 -0 -0 -0 -0 -0 -0 -0 -0 -0 -0 -0 -0 -0 -0 -0 -0 -0 -0 -0 -0 -0 -0 -0 -0 -0 -0 -0 -0 -0 -0 -0 -0 -0
-2 -2 -0 -13 -16 -32 -30 -20 -33 -13 -12 -10 -8 -2 -0 -0 -0 -0 -0 -0 -0 -0 -0 -0 -0 -0 -0 -0 -0 -0 -0 -0 -0 -0 -0 -0 -0 -0 -0 -0 -0 -0 -0 -0 -0
-4 -3 -0 -0 -13 -19 -42 -15 -19 -2 -2 -1 -0 -0 -0 -0 -0 -0 -0 -0 -0 -3 -0 -1 -0 -0 -0 -0 -0 -0 -0 -0 -0 -0 -0 -0 -0 -0 -0 -0 -0 -0 -0 -0 -0
-9 -1 -0 -0 -0 -19 -31 -6 -6 -1 -0 -8 -0 -0 -0 -0 -0 -0 -0 -0 -105 -24 -0 -0 -0 -0 -0 -0 -0 -0 -0 -0 -0 -0 -0 -0 -0 -0 -0 -0 -0 -0 -0 -0 -0
-3 -1 -0 -0 -0 -7 -28 -9 -4 -0 -0 -3 -14 -4 -0 -0 -0 -0 -0 -0 -0 -0 -128 -0 -0 -0 -0 -0 -0 -0 -0 -0 -0 -0 -0 -0 -0 -0 -0 -0 -0 -0 -0 -0 -0
-2 -6 -0 -0 -0 -1 -0 -9 -0 -20 -1 -4 -1 -12 -8 -0 -0 -0 -0 -0 -0 -0 -0 -0 -0 -0 -0 -0 -0 -0 -0 -0 -0 -0 -0 -0 -0 -0 -0 -0 -0 -0 -0 -0 -0
-4 -5 -0 -0 -0 -3 -0 -0 -0 -40 -0 -0 -0 -4 -26 -0 -0 -0 -20 -0 -0 -0 -0 -0 -0 -0 -0 -0 -0 -0 -0 -0 -0 -0 -0 -0 -0 -0 -0 -0 -0 -0 -0 -0 -0
-7 -4 -0 -0 -0 -0 -0 -0 -0 -21 -0 -0 -1 -3 -0 -0 -0 -0 -0 -16 -0 -0 -0 -0 -0 -0 -0 -0 -0 -0 -0 -0 -0 -0 -0 -0 -0 -0 -0 -0 -0 -0 -0 -0 -0
-2 -5 -0 -0 -0 -0 -0 -0 -1 -3 -2 -0 -1 -0 -0 -1 -4 -0 -16 -5 -0 -0 -0 -0 -0 -0 -0 -0 -0 -0 -0 -0 -2 -6 -1 -0 -0 -0 -0 -0 -0 -0 -0 -0 -0
-2 -4 -5 -0 -0 -4 -17 -1 -0 -27 -0 -0 -0 -0 -0 -0 -0 -1 -9 -0 -0 -0 -0 -0 -0 -0 -0 -0 -6 -1 -2 -2 -1 -0 -0 -0 -0 -0 -0 -0 -0 -0 -0 -0 -0
-4 -3 -0 -0 -0 -17 -5 -0 -0 -0 -0 -4 -3 -3 -0 -0 -0 -1 -11 -0 -1 -0 -0 -0 -0 -0 -0 -0 -0 -2 -5 -0 -0 -0 -0 -0 -0 -0 -0 -0 -0 -0 -0 -0 -0
-0 -0 -0 -0 -0 -9 -5 -2 -0 -0 -0 -0 -1 -0 -0 -0 -3 -0 -0 -0 -1 -0 -0 -0 -0 -0 -0 -0 -0 -0 -1 -0 -0 -0 -0 -0 -0 -0 -0 -0 -0 -0 -0 -0 -0
-0 -0 -0 -0 -16 -3 -0 -0 -0 -0 -0 -0 -0 -0 -1 -0 -0 -14 -0 -0 -0 -1 -0 -0 -0 -0 -0 -0 -0 -0 -0 -1 -6 -1 -0 -0 -0 -0 -0 -0 -0 -0 -0 -0 -0
-0 -0 -5 -0 -8 -2 -0 -0 -0 -0 -0 -21 -8 -16 -0 -5 -0 -0 -0 -0 -0 -3 -0 -3 -0 -0 -0 -0 -0 -2 -3 -4 -4 -8 -0 -0 -0 -0 -0 -0 -0 -0 -0 -0 -0
-0 -0 -10 -0 -0 -0 -0 -0 -0 -0 -0 -0 -0 -0 -0 -0 -24 -0 -0 -0 -0 -0 -0 -1 -18 -8 -0 -0 -0 -0 -46 -52 -16 -0 -0 -0 -0 -0 -0 -0 -0 -0 -0 -0 -0
-0 -2 -4 -0 -0 -0 -0 -0 -0 -0 -0 -0 -0 -0 -0 -0 -0 -2 -0 -0 -45 -0 -0 -0 -13 -20 -0 -6 -0 -17 -0 -1 -19 -4 -0 -0 -0 -0 -0 -0 -0 -0 -0 -0 -0
-0 -0 -0 -9 -0 -0 -0 -0 -0 -0 -0 -0 -0 -0 -0 -0 -0 -0 -0 -2 -2 -21 -38 -25 -20 -14 -0 -0 -10 -21 -23 -29 -16 -2 -0 -0 -0 -0 -0 -0 -0 -0 -0 -0 -0
-0 -0 -0 -0 -0 -0 -0 -0 -0 -0 -0 -0 -0 -0 -0 -0 -0 -0 -0 -0 -7 -0 -14 -7 -0 -0 -0 -0 -5 -3 -31 -28 -20 -0 -7 -0 -0 -0 -0 -0 -0 -0 -0 -0 -0
-0 -0 -0 -0 -0 -0 -0 -0 -0 -0 -0 -0 -0 -0 -0 -0 -0 -0 -0 -0 -6 -5 -7 -20 -2 -12 -0 -0 -0 -0 -0 -0 -0 -0 -30 -0 -0 -0 -0 -0 -0 -0 -0 -0 -0
-0 -0 -0 -0 -0 -0 -0 -0 -0 -0 -0 -0 -0 -0 -0 -0 -0 -0 -0 -0 -0 -0 -14 -6 -2 -5 -0 -1 -0 -3 -0 -0 -0 -0 -0 -0 -0 -0 -0 -0 -0 -0 -0 -0 -0
Wind_Speed
29 29 30 28 27 28 27 26 25 24 26 25 26 26 27 26 26 25 27 24 24 24 24 24 22 21 19 18 17 16 15 15 18 14 11 14 12 14 13 11 14 15 11 10 9
30 28 29 28 26 26 27 26 25 25 24 26 26 25 26 28 28 32 27 27 26 24 23 22 23 22 20 19 18 17 17 19 19 18 14 14 14 13 15 13 14 12 10 6 5
30 28 27 28 27 25 24 25 25 24 24 25 24 26 24 25 32 32 26 27 27 24 23 24 24 22 22 21 19 18 20 18 18 16 16 15 15 15 12 19 17 9 5 5 5
31 28 27 26 27 26 24 23 24 24 22 21 23 22 24 24 41 26 24 25 24 23 24 25 24 25 25 24 22 23 19 19 19 19 18 18 18 18 19 20 16 8 3 3 3
31 29 28 26 26 26 24 23 22 22 22 21 21 19 23 32 36 24 20 18 19 21 25 26 27 26 27 25 25 25 24 22 21 22 21 20 21 21 20 19 14 7 8 6 6
32 31 28 27 26 26 25 24 22 19 19 19 17 19 25 36 26 26 26 23 20 23 23 24 25 26 28 29 27 25 26 26 25 26 25 26 25 24 23 19 17 13 11 12 10
29 31 30 28 26 26 25 23 23 20 17 17 16 21 30 32 22 22 26 26 25 24 25 25 24 26 27 29 28 27 29 29 28 27 27 24 32 31 26 22 24 23 21 17 15
27 27 30 28 26 25 25 24 23 23 17 17 16 22 31 25 27 23 23 26 25 24 23 23 23 25 27 28 27 30 30 35 30 27 28 26 41 34 32 31 36 34 31 28 27
26 26 26 29 27 25 24 23 23 23 17 14 18 23 31 21 28 27 23 25 25 25 24 23 23 28 27 30 32 32 37 35 36 31 31 31 40 38 34 32 36 37 38 35 32
27 25 24 26 28 26 23 20 20 19 18 17 19 26 30 29 23 26 23 23 25 23 25 27 28 33 34 33 42 37 38 37 37 32 36 41 44 42 35 33 35 35 35 38 35
28 24 23 24 27 26 23 18 23 27 28 29 25 26 22 21 16 20 19 22 23 27 31 29 36 42 39 37 36 36 39 41 37 34 39 45 48 47 44 39 40 40 38 36 34
28 25 23 22 24 25 24 25 23 23 32 27 23 24 21 20 23 20 15 26 27 31 26 31 45 37 35 36 38 38 41 43 40 38 38 44 49 44 44 44 42 41 41 41 39
27 24 21 21 22 25 28 24 19 19 25 30 29 28 27 21 24 23 20 25 29 33 34 36 31 33 35 36 40 43 46 43 43 38 41 45 57 50 45 45 44 44 44 45 44
24 21 19 18 21 24 31 29 20 18 33 34 33 34 26 25 32 20 19 23 29 34 32 38 38 30 33 39 35 44 37 39 41 42 50 37 65 49 42 44 42 42 42 42 41
20 17 17 17 19 26 24 21 19 22 40 24 29 22 26 29 25 28 18 24 29 28 30 36 32 38 36 35 30 36 27 33 37 41 47 46 49 48 39 44 43 43 44 40 33
17 15 13 17 17 18 17 17 21 31 47 28 21 29 28 32 30 20 21 21 21 28 32 35 27 31 39 31 31 28 30 31 32 35 51 46 44 55 47 46 43 39 37 37 31
14 14 13 15 20 13 13 19 33 44 28 33 30 27 29 32 32 30 28 30 29 33 38 34 39 29 28 33 30 28 28 36 40 42 51 35 38 54 36 34 33 33 32 32 27
14 13 11 14 13 13 19 30 39 34 36 25 29 25 32 27 33 31 31 37 34 32 31 38 40 37 29 32 32 34 31 36 43 46 45 36 49 46 34 33 35 36 34 27 25
14 11 12 14 10 13 23 39 36 29 31 28 24 32 33 32 28 33 38 40 36 31 35 34 40 28 26 25 27 32 41 32 38 37 44 41 43 43 39 36 33 33 31 28 25
13 10 12 16 10 11 22 35 30 26 27 30 35 27 34 34 32 32 30 37 37 30 27 30 35 28 25 25 27 32 27 36 37 45 51 48 49 48 37 34 33 30 27 27 25
12 12 11 9 10 16 26 25 27 24 22 31 34 32 28 29 30 31 34 32 27 27 30 29 32 30 24 32 30 28 31 32 33 40 46 51 47 36 38 36 37 35 32 30 28
16 12 10 7 15 18 24 24 22 22 20 22 25 29 27 27 34 34 37 29 25 24 32 30 30 38 35 29 30 33 33 30 38 42 42 52 62 33 28 24 27 33 33 31 32
14 8 12 6 21 22 20 21 22 27 24 23 25 30 28 29 27 30 37 31 26 24 26 26 33 38 37 35 30 34 34 34 36 35 45 49 60 34 40 46 42 40 38 36 30
8 5 11 13 17 19 21 23 25 25 28 27 24 24 29 38 31 32 35 32 31 30 26 20 35 41 51 40 31 38 35 35 36 43 46 46 57 50 41 42 41 39 36 35 32
13 10 11 7 12 18 19 23 26 28 26 26 32 35 34 36 37 38 34 38 31 30 32 31 42 41 45 37 33 36 36 35 38 41 46 51 51 60 51 49 48 46 44 43 40
5 8 13 15 5 10 17 25 28 27 26 29 34 29 37 49 43 38 31 26 29 28 30 30 40 37 48 42 40 41 36 39 40 43 46 48 56 56 53 50 49 47 44 44 43
11 10 6 9 7 11 17 22 26 26 30 29 28 31 34 42 43 44 37 32 30 36 31 32 38 39 52 41 40 48 44 42 42 43 45 51 53 53 56 54 53 51 46 48 46
Wind_Direction
268 267 263 263 261 260 261 262 263 265 265 267 267 266 269 274 277 274 266 269 272 281 283 277 281 287 280 275 280 282 277 271 268 263 277 264 273 278 285 291 291 292 309 317 70
264 266 264 262 263 261 260 262 263 263 266 267 267 267 271 272 271 265 268 269 270 277 279 278 275 280 273 273 277 278 269 269 272 263 265 264 268 274 276 287 291 309 320 359 35
262 264 265 261 261 262 261 261 262 263 265 264 267 263 269 274 264 263 271 270 269 273 273 275 272 274 268 272 274 275 264 271 269 267 264 269 273 278 282 274 281 307 336 338 337
259 261 263 264 260 261 261 263 263 262 264 266 266 268 265 266 252 264 272 273 273 272 268 267 267 264 264 263 269 264 270 273 267 265 266 269 274 275 278 280 287 305 341 335 331
257 258 259 262 260 259 259 262 264 262 262 263 264 271 261 255 255 263 274 284 280 273 263 261 260 261 260 263 265 264 266 271 269 267 269 274 276 281 281 283 292 297 293 293 298
255 256 257 258 259 259 257 260 262 262 262 261 263 266 260 253 268 261 262 273 282 271 265 262 261 264 262 261 262 267 265 266 268 267 270 270 275 278 280 284 283 287 288 287 288
259 253 254 256 257 258 257 259 256 262 265 263 264 260 257 254 268 263 264 267 271 270 264 263 264 262 264 263 264 264 264 267 266 267 270 275 270 270 277 283 278 279 282 286 288
260 257 251 254 254 258 256 255 259 256 262 265 262 263 259 264 261 267 266 264 267 269 268 269 263 264 262 268 266 260 264 260 264 268 271 274 265 272 275 276 273 275 278 280 281
260 258 255 249 253 255 257 254 256 255 257 263 262 263 260 272 256 257 265 261 260 263 265 266 262 259 261 259 260 261 258 261 266 267 270 269 271 273 277 278 277 276 273 276 279
257 257 256 253 249 251 256 253 256 255 254 260 270 260 259 257 263 254 257 261 258 258 256 255 257 253 254 252 252 259 262 264 266 273 268 268 270 272 279 279 279 280 278 276 275
253 253 255 254 247 246 249 246 247 247 244 247 250 254 263 263 263 257 252 256 259 254 250 251 250 248 251 254 260 263 263 265 269 272 274 271 271 271 272 275 276 277 277 278 278
249 249 252 255 250 242 242 240 247 255 242 249 251 254 268 264 258 256 251 249 251 250 253 253 252 256 259 259 258 261 262 265 271 273 275 275 274 276 274 273 274 275 275 275 276
246 244 248 252 251 240 236 240 259 258 252 250 248 251 255 259 259 252 246 253 253 250 250 253 261 256 256 257 257 259 260 265 269 277 277 279 273 274 275 274 274 274 275 275 274
242 237 240 247 248 241 236 239 259 266 251 250 245 251 252 252 257 261 251 256 256 252 253 257 257 262 255 255 256 260 265 268 270 273 270 279 271 274 277 276 277 277 276 278 277
237 227 231 235 252 237 240 239 259 243 246 252 242 257 242 247 255 255 255 258 254 253 252 254 259 252 257 258 257 264 269 268 271 272 274 271 275 276 277 276 278 279 276 277 282
228 207 214 239 253 253 234 233 246 235 240 250 247 239 239 242 249 257 253 259 262 258 258 256 267 260 255 262 259 267 269 273 274 274 269 269 270 273 274 278 281 284 283 279 278
196 189 212 236 246 242 219 221 233 233 246 245 246 243 238 243 242 244 244 243 249 251 252 259 256 267 266 255 259 256 256 265 266 267 269 278 269 272 282 286 287 289 289 284 278
165 164 220 242 245 235 227 225 236 243 237 254 246 243 242 244 241 242 242 245 247 253 258 254 258 252 259 256 259 250 252 262 266 268 274 272 271 275 284 289 288 284 288 288 280
160 209 220 240 242 238 229 228 239 242 238 242 249 245 246 244 253 243 246 248 249 246 254 259 260 274 264 263 251 257 253 263 271 278 276 274 278 281 282 287 292 290 284 282 280
199 198 225 228 234 241 237 237 243 251 253 244 245 253 245 243 244 241 243 254 250 244 257 265 266 267 258 264 262 260 262 260 262 270 271 274 275 275 286 284 289 291 290 285 282
200 225 234 220 235 250 240 242 243 254 256 249 244 250 256 248 242 248 254 258 245 247 244 265 266 271 265 254 254 259 261 265 270 267 272 275 276 286 285 287 285 287 291 288 283
225 233 203 190 244 255 249 246 250 249 259 261 251 249 256 262 250 252 253 258 260 248 244 253 269 263 261 269 264 258 259 255 265 269 271 273 272 290 293 295 297 295 299 295 289
225 242 234 222 252 251 258 256 258 249 251 259 256 251 255 259 263 260 258 266 268 249 253 245 261 262 267 267 270 261 260 265 266 277 270 272 274 285 281 282 290 295 299 298 295
242 253 251 258 268 260 258 260 258 255 252 260 263 259 258 256 260 266 270 276 260 254 256 250 258 261 259 269 267 264 263 263 265 268 270 270 276 279 284 286 291 296 297 299 299
256 275 269 266 251 265 264 265 258 257 259 258 259 258 257 258 256 262 273 277 268 259 252 257 261 261 264 271 272 271 267 267 265 266 270 277 277 278 284 287 289 290 291 291 292
311 285 281 292 253 247 267 266 260 260 260 261 258 268 264 254 256 260 266 279 269 267 259 257 264 267 266 268 269 273 274 271 269 272 277 277 279 283 286 288 289 289 291 290 292
305 338 340 309 292 262 265 269 269 266 265 265 268 268 269 258 256 257 264 270 273 275 262 259 263 267 268 271 269 268 265 270 275 275 278 278 281 287 286 287 287 289 290 290 289